Hourly Data Report for September 28, 2005

TORONTO CITY
ONTARIO

43°40'00.000" N
79°24'00.000" W
112.50 m
6158355
71508
XTO

Download Data

Hourly Data (September 2005)
Hourly Data Report for September 28, 2005
TIME
LST
Temp Definition
°C
Dew Point Definition
°C
Rel Hum Definition
%
Precip. Amount Definition
mm

Wind Dir Definition
10's deg

Wind Spd Definition
km/h
Visibility Definition
km
Stn Press Definition
kPa
Hmdx Definition


Wind Chill Definition


Weather Definition


00:00 14.5 12.0 85   LegendMM LegendMM   100.53     LegendNANA
01:00 14.2 12.3 88   LegendMM LegendMM   100.55     LegendNANA
02:00 13.2 12.0 92   LegendMM LegendMM   100.50     LegendNANA
03:00 12.6 11.9 95   LegendMM LegendMM   100.49     LegendNANA
04:00 12.2 11.7 97   LegendMM LegendMM   100.52     LegendNANA
05:00 12.0 11.5 97   LegendMM LegendMM   100.51     LegendNANA
06:00 11.9 11.3 96   LegendMM LegendMM   100.52     LegendNANA
07:00 12.6 11.7 94   LegendMM LegendMM   100.50     LegendNANA
08:00 15.8 14.5 92   LegendMM LegendMM   100.47     LegendNANA
09:00 17.5 14.2 81   LegendMM LegendMM   100.44     LegendNANA
10:00 17.9 13.9 77   LegendMM LegendMM   100.37     LegendNANA
11:00 20.0 14.9 72   LegendMM LegendMM   100.29     LegendNANA
12:00 21.1 13.9 63   LegendMM LegendMM   100.19     LegendNANA
13:00 21.7 12.6 56   LegendMM LegendMM   100.05     LegendNANA
14:00 21.7 12.0 54   LegendMM LegendMM   99.96     LegendNANA
15:00 20.8 12.9 61   LegendMM LegendMM   99.84     LegendNANA
16:00 20.8 13.1 61   LegendMM LegendMM   99.76     LegendNANA
17:00 20.4 13.0 62   LegendMM LegendMM   99.66     LegendNANA
18:00 19.8 13.5 67   LegendMM LegendMM   99.66     LegendNANA
19:00 19.6 13.2 67   LegendMM LegendMM   99.53     LegendNANA
20:00 19.1 13.1 68   LegendMM LegendMM   99.37     LegendNANA
21:00 18.4 14.9 80   LegendMM LegendMM   99.24     LegendNANA
22:00 18.4 15.6 84   LegendMM LegendMM   99.06     LegendNANA
23:00 19.6 15.7 78   LegendMM LegendMM   98.89     LegendNANA

Notes on Data Quality.

Legend

  • E = Estimated
  • M = Missing
  • NA = Not Available*
  • [empty] = Indicates an unobserved value
Date modified: